Weather History for Trinidad, CO

Change the Weather History Date:

Saturday, December 29, 2012

  Actual Average Record
Temperature  
Mean Temperature 27 °F 31 °F  
Max Temperature 45 °F 46 °F 67 °F (1965)
Min Temperature 9 °F 17 °F -11 °F (1983)
Degree Days  
Heating Degree Days 38 34  
Month to date heating degree days 927 969  
Since 1 July heating degree days 1975 2202  
Cooling Degree Days 0 0  
Month to date cooling degree days 0 0  
Year to date cooling degree days 1175 719  
Moisture  
Dew Point 5 °F    
Average Humidity 43    
Maximum Humidity 73    
Minimum Humidity 13    
Precipitation  
Precipitation 0.00 in 0.02 in 0.55 in (2006)
Month to date precipitation 0.29 0.51  
Year to date precipitation 13.81  
Sea Level Pressure  
Sea Level Pressure 30.18 in    
Wind  
Wind Speed 10 mph (WSW)    
Max Wind Speed 18 mph    
Max Gust Speed 25 mph    
Visibility 10 miles    
Events      
T = Trace of Precipitation, MM = Missing Value Source: NWS Daily Summary

Daily Weather History Graph

Daily Weather History Graph

Search for Another Location

Airport:

Trip Planner

Search our weather history database for the weather conditions in past years. The results will help you decide how hot, cold, wet, or windy it might be!

Date:

Astronomy

Dec. 29, 2012 Rise Set
Actual Time 7:10 AM MST 4:48 PM MST
Civil Twilight 6:41 AM MST 5:17 PM MST
Nautical Twilight 6:09 AM MST 5:50 PM MST
Astronomical Twilight 5:37 AM MST 6:22 PM MST
Moon 6:21 PM MST (12/29) 7:47 AM MST (12/29)
Length of Visible Light 10h 36m
Length of Day
9h 37m
Full, 98% of the Moon is Illuminated
Dec 29
Full
Jan 4
Last Quarter
Jan 11
New
Jan 18
First Quarter
Jan 26
Full

Hourly Weather History & Observations

Time (MST) Temp. Windchill Dew Point Humidity Pressure Visibility Wind Dir Wind Speed Gust Speed Precip Events Conditions
12:54 AM 10.9 °F -1.8 °F 3.9 °F 73% 30.25 in 10.0 mi West 9.2 mph - N/A   Clear
1:54 AM 12.0 °F -2.7 °F 3.9 °F 70% 30.26 in 10.0 mi WSW 12.7 mph - N/A   Clear
2:54 AM 12.0 °F -2.7 °F 3.0 °F 67% 30.27 in 10.0 mi WSW 12.7 mph - N/A   Clear
3:54 AM 12.0 °F -1.3 °F 3.0 °F 67% 30.27 in 10.0 mi West 10.4 mph - N/A   Clear
4:54 AM 9.0 °F -5.1 °F 1.0 °F 70% 30.30 in 10.0 mi West 10.4 mph - N/A   Clear
5:54 AM 12.0 °F -3.4 °F -0.0 °F 59% 30.30 in 10.0 mi WSW 13.8 mph - N/A   Clear
6:54 AM 12.0 °F -3.4 °F -0.0 °F 59% 30.33 in 10.0 mi WSW 13.8 mph - N/A   Clear
7:54 AM 17.1 °F 3.0 °F 1.9 °F 52% 30.34 in 10.0 mi WSW 13.8 mph - N/A   Clear
8:54 AM 24.1 °F 12.0 °F 5.0 °F 44% 30.32 in 10.0 mi WSW 13.8 mph - N/A   Clear
9:54 AM 30.0 °F 23.2 °F 6.1 °F 36% 30.30 in 10.0 mi SSW 6.9 mph - N/A   Clear
10:54 AM 30.9 °F 26.2 °F 6.1 °F 35% 30.28 in 10.0 mi South 4.6 mph - N/A   Clear
11:54 AM 35.1 °F 31.0 °F 1.0 °F 24% 30.23 in 10.0 mi SSE 4.6 mph - N/A   Clear
12:54 PM 37.9 °F - 5.0 °F 25% 30.17 in 10.0 mi Calm Calm - N/A   Clear
1:54 PM 42.1 °F 38.4 °F 8.1 °F 25% 30.12 in 10.0 mi East 5.8 mph - N/A   Clear
2:54 PM 45.0 °F 37.6 °F -4.0 °F 13% 30.08 in 10.0 mi South 17.3 mph 23.0 mph N/A   Clear
4:54 PM 33.1 °F - 9.0 °F 37% 30.12 in 10.0 mi Calm Calm - N/A   Clear
5:54 PM 32.0 °F 23.6 °F 9.0 °F 38% 30.11 in 10.0 mi West 10.4 mph - N/A   Clear
6:54 PM 32.0 °F 21.6 °F 8.1 °F 37% 30.10 in 10.0 mi West 15.0 mph - N/A   Clear
7:54 PM 30.0 °F 19.5 °F 8.1 °F 40% 30.08 in 10.0 mi West 13.8 mph - N/A   Clear
8:54 PM 28.9 °F 20.4 °F 8.1 °F 41% 30.03 in 10.0 mi WNW 9.2 mph - N/A   Clear
9:54 PM 27.0 °F 20.5 °F 8.1 °F 45% 29.99 in 10.0 mi NNW 5.8 mph - N/A   Clear
10:54 PM 28.0 °F 18.1 °F 8.1 °F 43% 29.98 in 10.0 mi WNW 11.5 mph - N/A   Clear
11:54 PM 28.0 °F 17.0 °F 7.0 °F 41% 29.93 in 10.0 mi West 13.8 mph - N/A   Clear